GFSMW_sfc_temp_159.txt.gz
Temp
87 87 87 87 85 84 83 81 81 81 82 82 83 83 84 86 87 87 86 86 87 87 85 87 86 85 84 83 82 82 80 83 81 80 82 83 85 84 86 88 87 86 87
85 85 86 85 85 84 83 82 81 81 81 84 83 85 85 87 87 88 85 86 86 86 85 84 85 84 84 82 82 79 79 80 80 78 78 76 81 85 85 85 85 84 86
84 84 84 84 86 84 83 82 82 82 82 83 83 83 83 83 84 85 86 87 86 86 85 84 84 83 83 84 81 80 78 78 79 77 76 74 73 76 84 82 83 81 83
85 85 84 84 85 86 86 84 83 82 82 82 82 80 83 82 85 86 87 87 85 86 85 83 83 80 83 81 81 82 79 76 76 78 79 76 74 71 71 80 81 81 79
87 86 86 85 87 88 87 85 83 82 83 81 82 82 81 85 87 86 83 83 83 83 83 81 79 79 82 80 79 78 77 79 76 77 76 75 76 74 67 68 75 80 82
88 87 88 87 86 88 87 87 83 81 82 81 81 80 81 82 83 83 84 84 84 83 81 80 78 78 79 80 80 78 77 76 76 77 76 75 72 72 70 70 71 72 77
88 87 85 84 85 85 86 86 82 80 82 81 81 81 81 81 81 82 84 83 83 81 78 76 74 78 78 79 79 78 77 76 76 74 76 76 76 76 74 72 72 71 75
89 87 87 86 85 86 85 85 84 79 81 81 81 81 81 83 84 83 82 82 81 80 75 72 75 77 78 78 78 80 79 76 76 74 74 76 77 76 75 72 70 67 71
90 89 89 88 87 86 85 85 83 81 82 82 82 82 82 82 84 81 79 76 73 70 73 74 75 76 77 77 77 79 77 76 75 74 74 74 76 76 75 74 73 69 63
90 90 88 87 89 88 88 87 86 82 83 83 81 83 83 81 83 81 73 69 68 69 72 73 74 77 77 77 76 77 77 74 76 75 71 71 74 73 74 74 73 72 68
91 91 91 89 90 91 90 87 86 85 83 83 84 83 82 80 82 77 74 70 68 68 70 73 74 75 76 76 74 72 74 72 72 72 71 70 70 72 72 73 73 72 70
91 92 91 90 89 90 88 87 86 85 84 84 83 81 81 78 79 74 70 71 70 70 72 73 75 76 76 75 71 71 72 72 71 71 70 69 72 69 70 73 69 69 66
86 88 87 86 86 87 87 85 85 85 85 84 82 81 80 76 77 76 75 76 76 72 75 75 75 75 76 72 72 70 73 72 72 71 70 69 69 67 70 68 67 65 66
83 84 83 82 83 84 84 85 85 86 85 83 82 81 78 76 75 75 76 77 76 75 74 75 76 76 76 74 74 73 72 71 72 71 70 69 69 67 65 67 64 64 61
82 83 82 81 81 81 81 83 84 84 83 82 81 80 78 78 77 75 77 77 75 74 76 76 76 76 76 77 74 73 69 69 69 71 71 71 68 64 64 63 62 61 58
84 84 83 81 80 80 80 82 82 81 82 81 79 79 77 75 74 74 74 75 74 74 75 76 76 75 77 66 64 67 69 70 70 68 69 70 68 68 63 63 62 61 56
86 82 81 80 79 81 81 81 81 80 79 79 79 76 74 73 74 74 73 73 73 74 74 75 75 74 74 62 61 64 72 70 69 68 67 69 72 67 65 64 62 64 61
87 83 83 82 82 82 82 83 81 78 79 76 75 75 74 74 74 72 72 73 73 73 74 74 74 72 74 61 59 62 70 70 69 69 68 68 67 67 61 61 63 61 56
84 83 83 82 80 81 81 80 79 78 77 76 76 75 75 74 73 72 72 73 73 73 74 75 73 72 73 58 58 61 70 69 68 69 69 67 66 59 56 60 59 56 57
80 80 81 81 79 78 79 78 77 77 76 77 76 75 75 74 74 74 73 73 74 74 77 74 74 66 72 56 55 61 71 68 68 68 69 63 60 54 52 58 58 53 53
77 79 80 79 76 78 79 77 76 76 77 76 75 74 74 75 75 74 73 73 73 74 72 72 72 71 69 64 53 53 68 68 68 69 69 69 55 51 50 51 59 53 54
78 79 77 75 76 77 78 75 76 75 76 75 74 74 74 76 75 73 72 72 72 72 71 71 71 71 68 55 53 52 53 57 65 65 67 66 51 49 50 57 51 51 57
76 79 77 74 73 75 77 74 72 73 70 70 71 72 74 75 74 72 71 73 72 74 73 72 71 71 70 68 52 51 52 54 65 66 59 54 51 52 59 54 53 56 60
74 76 75 73 71 73 72 72 70 71 71 70 70 71 72 70 72 73 74 75 74 72 70 70 68 70 69 67 69 70 69 60 65 62 65 59 57 55 57 61 62 62 61
74 75 73 72 72 72 72 72 70 71 71 71 71 71 68 67 69 67 71 75 71 66 71 72 72 70 68 67 56 58 66 66 58 61 66 64 62 60 59 60 61 60 62
73 73 74 73 73 72 71 71 69 72 71 70 70 67 64 67 64 64 59 50 50 48 47 45 60 67 54 46 45 44 45 46 49 63 62 60 59 57 56 57 59 60 58

GFSMW_sfc_temp_162.txt.gz
Temp
95 96 94 94 93 92 89 88 87 87 88 88 89 89 90 92 94 95 93 92 93 93 91 94 94 92 91 88 88 89 87 89 89 86 88 90 92 92 94 94 94 92 93
94 94 94 93 92 91 89 88 87 87 87 90 90 92 92 95 95 96 94 92 92 91 91 90 91 91 91 89 87 85 87 90 89 82 83 82 89 92 92 91 90 91 91
93 93 92 92 93 91 90 88 87 87 87 89 90 89 90 90 91 92 93 93 92 91 90 90 89 89 88 91 86 87 83 84 86 83 81 78 78 81 91 89 90 87 88
95 94 93 92 93 93 94 90 89 88 88 87 89 86 89 88 93 93 95 94 92 91 91 90 89 88 88 83 87 88 83 81 82 86 87 82 79 75 76 86 87 88 86
96 95 95 94 95 95 95 94 90 88 88 87 87 89 85 92 93 93 90 88 90 90 92 89 87 85 88 85 84 83 82 85 82 83 83 81 83 82 78 75 81 86 88
98 97 97 97 96 97 96 96 90 87 88 88 86 86 87 87 91 90 91 92 94 92 88 88 86 85 83 82 83 82 81 81 81 82 82 82 80 79 79 77 77 79 83
98 97 95 95 94 95 96 96 92 87 88 87 87 86 86 86 86 87 90 88 89 86 84 82 80 80 81 82 82 81 81 81 79 78 81 83 82 82 81 78 77 77 81
100 98 98 97 96 95 95 95 93 88 88 88 87 87 87 90 90 90 92 92 89 85 79 79 78 80 81 83 82 84 81 81 82 78 78 81 82 83 81 78 76 73 76
101 100 100 99 97 96 95 94 93 90 89 88 88 87 87 87 90 90 89 91 84 80 77 77 79 81 82 82 80 80 81 81 80 79 79 79 81 82 81 81 80 75 70
103 102 100 99 100 99 98 97 95 91 90 90 89 88 88 87 88 89 87 87 84 80 75 77 79 80 81 81 81 83 83 78 79 81 77 76 80 79 81 81 80 79 76
104 104 103 102 101 102 100 98 96 93 90 90 91 90 88 88 86 87 87 86 83 78 79 79 81 81 81 81 81 80 80 78 77 78 77 75 76 78 79 79 79 78 77
106 105 105 104 101 101 100 99 96 94 92 91 89 89 88 88 86 86 87 84 81 80 81 81 81 81 81 81 80 79 81 78 77 77 76 75 78 73 75 79 74 75 75
99 101 102 100 99 97 98 97 96 94 94 91 89 87 87 86 85 84 84 82 77 82 84 81 79 80 80 81 80 79 79 78 78 77 76 75 74 72 75 74 73 75 74
95 97 97 95 95 94 95 95 95 95 93 91 88 87 87 86 85 85 83 80 82 82 82 81 80 80 81 81 80 79 79 78 78 77 76 76 75 73 71 71 70 71 70
94 94 92 91 91 91 91 92 92 92 92 89 88 87 88 88 84 82 83 83 83 79 81 81 80 81 82 84 80 80 79 76 76 77 77 78 73 68 68 69 67 67 66
96 95 92 90 89 88 89 90 90 90 90 88 88 88 87 81 80 79 80 79 78 81 80 80 81 81 84 67 68 71 77 77 75 74 75 76 73 73 67 65 65 65 63
100 96 93 90 89 89 89 89 90 90 88 87 88 86 81 77 76 76 77 76 78 80 79 80 81 80 81 64 63 65 77 77 76 74 74 75 79 73 73 67 65 67 66
100 99 95 92 90 91 90 91 90 88 87 86 85 78 76 76 75 74 76 79 79 78 79 79 80 79 80 62 60 64 73 76 76 75 74 73 73 70 64 65 68 70 70
99 97 95 92 90 91 90 88 87 87 86 85 82 78 77 77 75 75 78 79 78 78 78 79 79 78 78 60 58 64 76 77 74 76 74 73 71 59 56 64 66 67 68
94 92 94 92 90 88 88 87 85 85 85 85 83 80 79 78 76 79 78 78 78 78 81 79 79 73 77 57 56 64 78 76 76 74 76 60 62 55 53 62 66 63 62
90 91 90 88 85 87 87 85 85 84 85 85 83 81 81 79 79 75 75 75 76 78 78 77 77 77 75 66 55 56 73 76 75 76 76 76 55 52 51 51 65 60 59
87 88 85 83 85 86 87 85 82 84 85 84 83 81 81 81 77 74 76 76 77 76 76 76 77 79 74 60 54 54 55 59 70 72 75 70 52 50 51 57 52 52 59
86 86 84 81 82 84 84 79 79 81 80 80 80 77 76 78 78 77 75 78 76 79 78 78 76 76 76 72 53 53 54 57 68 72 61 56 53 53 60 55 54 59 68
81 83 81 78 78 79 80 79 79 78 78 75 76 75 76 74 76 81 81 81 80 80 79 76 75 74 76 75 75 74 72 60 67 65 71 64 59 57 61 66 67 68 67
81 82 79 78 77 78 79 80 79 79 76 77 77 77 78 78 75 73 71 74 72 68 77 77 80 70 76 71 56 62 73 72 63 62 73 71 70 68 67 67 67 67 67
79 79 79 78 78 78 77 77 79 80 78 75 73 72 72 73 76 71 63 49 50 47 47 47 58 70 54 46 45 46 47 48 51 69 69 68 67 65 65 64 64 65 62

GFSMW_sfc_temp_165.txt.gz
Temp
99 99 97 98 96 95 92 90 89 89 90 90 90 90 92 94 96 98 97 95 95 95 94 95 96 94 94 90 88 90 89 90 92 87 88 91 95 93 94 96 95 93 94
98 97 97 96 96 94 92 90 89 89 89 91 91 94 94 97 98 99 97 95 94 94 93 91 93 93 93 91 89 86 86 89 90 83 83 82 89 92 92 93 93 92 92
96 96 95 95 96 94 92 90 89 89 89 91 92 92 93 93 94 95 95 95 93 92 92 92 91 90 91 93 88 87 85 84 87 86 82 78 76 81 90 89 92 88 90
99 98 96 95 96 96 95 92 90 89 90 89 91 88 90 89 93 94 97 97 95 93 93 91 91 90 91 86 89 89 83 82 81 87 88 83 81 76 77 87 88 89 88
100 99 98 97 98 98 97 95 91 89 90 89 89 91 87 93 95 96 94 92 93 92 92 92 91 88 89 88 85 83 82 83 83 83 81 82 85 84 80 76 81 86 89
102 101 100 99 98 100 99 97 92 88 89 90 88 88 89 88 93 92 94 94 94 92 89 90 87 87 85 84 84 84 82 81 80 79 81 83 81 80 79 77 78 79 83
103 101 99 98 98 98 98 98 94 88 90 89 89 87 88 89 88 90 92 92 96 96 89 86 84 84 82 83 83 82 81 81 80 80 81 84 83 83 81 79 77 77 81
104 103 102 100 99 99 98 98 96 90 90 90 88 89 88 90 91 91 93 95 95 96 91 87 85 82 83 83 82 82 83 83 83 80 79 81 83 83 82 79 76 74 77
105 104 104 103 101 100 99 99 96 93 91 90 89 88 89 88 91 90 90 93 93 96 91 85 83 82 84 83 82 83 82 83 82 81 80 80 82 83 81 81 81 76 71
107 107 105 104 104 103 102 101 100 96 93 92 91 90 90 89 89 91 90 89 91 91 90 82 82 84 84 83 82 84 85 81 82 82 80 78 80 79 81 80 80 80 77
109 110 109 107 107 107 105 103 101 98 94 93 92 91 90 90 90 89 90 90 90 88 79 81 83 83 83 83 82 82 82 80 79 80 78 77 77 78 78 78 79 79 78
110 112 112 111 108 106 105 104 101 98 96 93 91 90 91 90 89 89 90 90 89 88 80 76 80 83 83 83 82 81 83 80 79 79 78 77 79 75 75 78 74 74 75
105 107 110 108 107 105 105 102 101 100 98 94 92 90 89 89 88 88 88 89 88 86 84 81 78 80 82 82 82 82 81 80 80 80 78 77 76 74 75 73 73 74 74
103 103 103 104 104 101 101 102 102 101 98 95 92 89 89 89 89 89 88 87 85 84 82 76 76 82 82 82 83 82 80 80 80 80 78 78 77 75 72 72 71 72 70
103 101 100 100 100 98 98 99 100 98 97 93 91 90 90 90 89 85 84 84 82 84 84 82 84 83 83 86 83 82 81 80 79 79 79 80 75 71 70 73 70 68 68
103 102 99 98 96 95 95 96 96 96 95 92 90 90 90 89 86 85 85 84 81 78 81 83 83 82 86 68 71 75 81 79 78 77 78 78 75 74 68 66 66 66 65
105 104 101 96 94 94 94 94 94 94 92 90 90 89 89 86 85 84 80 79 77 79 79 80 81 82 83 65 66 68 79 78 78 77 76 76 80 74 72 68 66 68 67
104 105 105 99 96 96 94 94 94 91 90 89 89 88 85 83 82 80 77 76 76 77 76 78 81 81 78 63 63 66 76 77 77 78 76 75 74 68 65 66 68 70 71
104 103 106 101 96 95 94 93 91 90 90 89 86 82 82 80 77 76 77 78 77 78 79 80 80 79 76 61 60 65 77 77 77 78 77 75 74 56 57 64 65 67 69
103 101 104 100 96 94 93 91 89 89 88 87 83 81 81 80 79 79 79 79 79 77 82 79 80 76 79 58 58 65 78 77 78 78 77 59 63 55 54 62 65 64 65
98 99 99 96 93 93 92 89 88 87 89 88 86 83 83 81 81 80 80 77 77 78 78 78 79 80 77 65 57 59 72 77 76 77 78 72 55 53 52 51 65 62 61
94 95 93 90 90 90 89 87 86 87 89 87 85 84 83 82 78 77 76 78 78 76 76 77 77 79 76 60 56 56 58 62 71 73 75 71 54 52 52 56 54 55 58
91 91 88 86 88 88 87 82 83 85 85 83 81 80 77 76 76 74 77 74 78 76 76 73 73 73 76 71 53 55 57 58 69 74 63 58 55 53 60 53 55 57 67
86 87 85 83 82 83 82 81 81 81 79 79 78 80 78 78 78 79 81 74 73 73 72 68 74 74 73 74 73 69 69 59 66 68 72 68 63 61 60 68 69 69 67
84 84 81 80 80 81 81 82 82 83 82 81 80 79 75 76 71 63 60 69 61 62 70 77 73 73 71 64 54 63 74 72 63 62 74 73 72 70 70 70 69 67 65
83 81 80 80 80 80 80 81 83 82 81 81 82 81 79 71 70 68 69 49 51 49 50 51 67 67 55 47 48 49 51 51 51 69 71 70 69 68 68 67 67 65 63

GFSMW_sfc_temp_168.txt.gz
Temp
96 96 96 96 95 92 89 87 87 86 86 86 84 84 86 87 89 90 90 89 91 92 90 88 87 86 85 86 85 84 82 80 81 77 77 79 83 84 82 84 84 85 85
95 95 94 94 93 91 88 86 86 86 86 86 85 87 86 89 90 90 90 90 90 90 90 88 86 86 86 85 82 83 80 79 79 76 73 71 76 79 82 81 83 82 82
94 93 92 92 93 90 88 86 85 85 85 86 86 85 87 87 87 89 89 89 89 88 89 88 86 86 86 83 84 82 80 75 77 79 74 70 67 72 77 79 80 79 79
96 94 93 91 93 92 91 88 86 85 86 84 85 83 84 83 86 86 88 89 89 87 87 86 86 85 85 81 82 82 79 76 73 76 79 76 74 69 69 75 76 77 78
98 96 95 93 94 95 93 90 86 85 85 84 84 85 84 86 87 88 86 86 86 88 89 87 85 85 85 83 80 80 77 76 75 73 73 74 75 74 69 67 72 76 76
100 98 97 95 93 96 95 92 86 84 84 84 84 82 83 83 85 86 86 87 87 88 87 88 86 86 83 81 80 78 78 77 77 75 75 74 71 70 68 66 68 68 73
100 97 95 93 92 93 94 93 87 83 85 85 84 83 83 84 83 85 86 86 87 87 85 85 84 84 82 82 80 78 78 78 77 76 75 75 73 73 71 68 68 68 72
102 99 98 95 94 94 93 93 89 84 85 84 84 84 83 86 87 86 86 87 87 88 85 84 84 82 81 80 80 78 77 78 77 77 75 74 73 73 71 68 68 66 68
102 101 100 99 96 94 93 93 90 86 85 86 84 84 84 84 85 85 86 87 86 86 84 84 82 81 80 80 79 77 77 78 77 77 76 73 73 73 71 71 69 66 63
104 104 101 98 99 98 96 95 94 89 87 87 86 86 85 85 84 85 84 86 86 86 84 82 81 80 80 79 78 78 79 77 78 77 75 73 73 72 72 70 70 70 67
106 106 105 103 102 102 100 97 95 92 89 88 87 86 86 86 86 84 86 86 86 86 84 80 79 78 79 76 74 77 79 78 76 76 75 74 74 72 71 70 70 68 68
108 109 108 107 104 102 100 99 95 93 91 89 87 86 86 86 85 85 85 87 85 86 84 80 77 78 78 77 77 77 79 76 75 75 74 74 75 71 70 69 66 67 67
105 105 104 102 103 101 99 96 95 94 93 90 87 86 85 85 84 84 85 85 86 85 84 80 78 78 77 77 78 78 78 78 77 75 75 74 73 70 69 68 67 68 68
102 103 100 97 99 96 96 96 96 97 93 90 88 85 86 85 86 86 85 85 85 84 82 79 77 75 76 78 79 79 78 77 76 76 76 75 73 70 68 68 66 66 63
101 99 97 97 98 94 93 95 95 93 92 89 87 86 87 87 87 86 86 86 84 82 77 76 77 77 78 81 78 78 77 75 75 76 76 75 73 71 69 67 64 62 62
101 102 98 97 97 96 94 94 93 91 91 89 87 87 86 86 86 85 84 83 82 80 80 76 77 77 80 73 72 77 77 77 75 73 74 74 73 71 66 66 66 64 61
100 99 96 93 91 93 93 93 93 92 89 88 88 87 86 85 84 83 82 82 80 80 78 78 77 75 74 65 68 71 75 75 74 74 72 74 77 69 67 65 65 65 66
102 101 101 95 93 94 92 93 92 90 89 87 87 86 85 85 84 83 82 80 79 77 77 77 78 76 71 63 65 67 74 74 74 73 74 72 71 59 61 62 62 64 65
101 100 101 97 92 92 91 90 89 88 87 86 86 86 84 83 82 80 79 78 76 75 75 76 77 74 69 60 61 66 72 72 73 73 73 70 63 58 58 59 60 61 63
100 99 103 101 93 91 91 89 87 87 86 87 84 83 82 80 77 77 76 77 77 75 75 77 75 73 68 58 58 66 72 71 72 72 61 59 60 57 55 57 59 59 59
99 101 100 94 90 90 90 87 87 85 86 82 82 80 80 77 76 76 77 75 74 75 75 74 74 74 68 58 58 60 68 68 68 69 67 62 56 54 53 52 59 58 57
96 98 92 89 89 89 88 84 81 82 84 83 81 79 77 78 79 75 74 75 74 73 73 74 73 71 65 58 56 58 59 62 65 67 66 65 56 54 52 54 56 54 57
92 92 88 86 87 86 84 82 81 82 81 81 80 78 79 78 75 73 75 75 76 75 73 70 71 68 65 63 55 57 59 59 63 68 62 60 56 55 57 57 55 59 61
87 88 86 83 79 80 80 82 82 81 79 78 76 76 75 75 77 77 77 75 75 73 70 70 67 68 69 63 65 64 62 58 61 66 65 64 62 62 61 63 63 61 60
84 84 80 79 78 80 80 81 81 81 78 78 77 76 76 76 69 64 65 73 60 62 68 69 68 65 64 63 59 63 66 65 58 57 65 65 64 63 62 62 62 60 59
81 80 79 79 80 80 80 81 81 81 79 78 79 79 79 74 70 66 60 50 50 48 50 52 63 56 53 47 49 49 52 54 54 62 64 63 63 62 61 61 61 60 59

GFSMW_sfc_temp_171.txt.gz
Temp
86 88 88 88 85 85 82 82 80 80 80 77 76 74 74 76 78 79 82 83 83 83 81 80 79 79 78 78 78 76 75 73 73 71 71 74 75 75 75 75 76 79 80
86 87 86 87 85 83 83 80 80 79 81 79 80 77 76 77 82 80 80 83 83 82 81 80 79 79 77 76 76 76 72 72 72 69 68 66 70 72 78 74 76 76 75
84 85 86 84 85 82 81 81 80 78 79 79 78 77 77 77 76 79 80 81 82 82 81 80 79 78 78 75 75 75 72 68 70 72 69 63 62 65 70 74 72 73 72
86 85 85 83 85 84 83 81 80 79 80 78 78 76 78 73 75 79 79 81 82 82 81 81 79 78 77 76 76 74 72 70 67 70 72 69 67 62 61 68 69 70 72
88 85 85 86 87 87 84 82 82 81 81 81 79 77 78 75 76 77 79 78 79 80 82 80 79 78 78 77 74 72 71 70 68 67 66 66 67 65 61 58 63 70 68
89 88 87 87 87 88 86 84 81 80 81 80 79 77 77 76 76 78 76 78 78 81 80 81 79 78 77 75 73 73 72 70 69 68 67 66 63 62 61 58 58 60 65
90 87 85 84 85 86 85 85 81 79 81 80 80 79 78 77 77 76 78 76 77 76 81 80 78 77 76 75 74 72 71 70 69 69 68 67 65 64 62 60 58 58 62
91 88 87 86 86 87 86 85 82 80 80 81 79 80 80 79 79 78 77 77 78 79 79 80 77 76 75 74 73 72 70 71 70 70 68 67 66 65 63 61 57 57 57
91 90 89 88 87 88 87 86 83 81 80 80 81 80 80 79 80 78 77 79 79 79 77 78 77 76 74 74 73 71 71 70 71 70 69 66 66 65 64 62 61 57 55
93 92 90 89 89 89 89 88 85 82 81 82 81 81 81 81 81 80 77 77 78 78 76 76 75 74 74 73 73 73 72 70 70 70 68 67 66 65 64 63 63 60 56
94 93 93 92 91 91 90 89 87 83 82 82 83 82 82 81 81 81 79 79 78 78 76 76 75 74 72 72 71 72 70 70 71 70 68 67 67 64 64 63 61 60 57
96 95 95 94 92 91 90 90 89 87 83 83 83 82 81 82 81 80 80 78 80 78 76 75 73 73 72 70 70 70 70 71 69 70 67 66 70 65 64 61 60 59 59
88 87 95 93 92 92 92 90 90 89 86 84 83 82 81 81 81 81 80 80 79 78 76 75 73 72 71 70 70 70 70 70 72 69 67 68 66 63 63 61 59 59 60
87 84 82 83 89 93 92 91 90 90 88 84 83 81 81 81 81 81 79 79 79 78 77 75 74 71 71 71 71 71 70 69 70 70 69 68 66 64 61 60 58 57 55
84 84 83 83 83 86 89 90 89 89 88 85 83 82 83 82 82 79 79 79 78 78 76 74 72 71 71 73 71 72 70 68 69 69 70 68 69 69 66 60 57 55 52
86 85 85 85 84 82 80 85 83 84 85 83 83 82 81 80 79 78 78 78 78 75 74 72 71 71 75 70 68 73 70 68 68 68 67 68 68 66 66 65 65 62 54
86 84 84 83 81 81 82 81 81 82 84 83 82 80 80 77 78 78 78 77 76 75 73 73 73 71 71 65 67 69 67 67 67 67 66 67 69 61 59 61 62 61 63
85 85 82 81 79 81 80 81 80 79 79 79 79 79 79 78 77 77 77 75 75 75 74 72 73 68 65 64 64 68 68 68 68 68 66 64 56 57 56 55 54 55 56
83 82 82 80 79 80 80 79 78 78 78 77 78 79 79 77 76 75 74 74 74 73 71 71 70 66 62 61 62 65 65 65 64 60 61 58 56 58 57 53 52 52 54
84 83 83 80 79 78 80 78 77 77 76 77 77 78 77 76 75 75 74 74 74 72 72 69 68 65 63 59 59 63 63 61 60 57 57 60 58 56 55 51 50 49 51
84 82 79 81 79 79 81 77 77 76 77 77 77 76 75 74 75 75 73 72 70 70 69 69 68 66 62 57 57 61 61 60 60 57 56 56 57 53 52 52 49 52 52
79 81 78 76 77 78 80 76 76 76 77 76 75 74 73 74 74 72 71 70 69 67 67 68 65 62 60 56 56 56 59 61 59 58 57 56 55 54 52 52 53 53 55
77 79 78 76 76 77 77 75 75 76 75 75 74 72 72 71 71 71 69 71 68 68 67 66 63 59 59 56 54 56 57 59 58 57 58 58 56 54 54 55 56 54 51
77 76 74 73 73 76 77 77 77 76 75 72 72 72 71 70 70 71 69 68 67 66 66 65 64 59 56 56 56 58 56 57 58 59 56 58 57 57 56 54 53 52 51
75 75 73 72 71 74 75 76 76 75 72 71 71 71 70 69 60 54 52 61 54 55 65 65 63 61 57 58 56 58 57 56 54 54 55 54 53 52 51 51 51 50 50
73 73 73 72 72 75 75 75 74 73 72 70 69 69 68 64 60 59 56 51 48 47 47 53 60 56 53 49 48 49 50 50 53 55 52 51 50 50 49 49 49 49 50

GFSMW_sfc_temp_174.txt.gz
Temp
83 85 85 85 83 81 80 79 78 77 76 72 71 70 71 73 74 75 78 79 79 80 78 76 77 77 75 75 75 74 73 72 70 69 70 71 72 72 74 72 73 74 75
81 83 84 84 82 81 80 79 78 76 77 78 76 74 72 74 76 76 77 78 80 79 79 77 76 77 76 75 74 73 70 70 69 67 64 64 68 70 74 71 73 71 72
79 81 82 82 82 81 80 79 79 77 78 78 75 73 73 73 73 74 75 78 79 80 79 78 77 75 74 74 73 73 71 68 68 69 67 61 60 63 67 70 68 69 69
82 82 82 81 81 82 83 82 80 78 79 76 77 76 74 73 75 74 76 77 79 79 79 78 77 76 74 74 73 73 70 68 66 66 70 67 66 61 60 64 65 66 69
84 82 82 83 83 84 83 83 80 78 79 78 79 77 76 75 73 74 75 76 76 80 81 79 77 76 74 74 74 71 72 70 67 65 65 66 64 62 58 57 61 63 64
85 85 86 85 83 84 83 83 80 79 79 79 78 77 77 74 74 76 73 73 75 79 78 79 77 76 75 74 72 71 71 69 69 67 66 65 65 61 58 56 56 58 62
86 84 82 83 83 83 82 81 79 78 79 78 78 77 76 75 76 76 76 73 73 73 79 78 77 77 75 74 71 70 70 70 68 68 69 67 65 63 60 57 56 56 59
87 85 83 84 84 84 82 82 79 78 78 78 78 79 78 77 77 75 74 75 78 76 77 78 78 76 75 74 71 70 70 70 69 68 68 67 65 63 61 60 56 53 54
87 86 85 85 84 84 83 82 81 80 79 79 79 78 78 78 78 75 75 79 76 76 76 76 75 75 74 74 71 69 69 69 68 68 68 67 67 63 63 60 59 56 51
88 87 85 84 85 86 85 84 83 80 80 80 79 79 79 78 79 79 76 77 79 75 76 75 75 74 73 72 70 69 70 69 68 67 68 69 66 63 62 61 60 57 55
89 88 87 86 86 87 87 85 83 81 80 80 80 80 79 79 78 78 78 78 75 75 74 74 74 73 72 70 70 70 69 69 68 67 67 66 66 63 62 61 59 59 55
91 90 89 88 86 86 86 86 85 82 81 81 80 79 79 79 78 78 78 77 78 75 74 74 73 73 72 70 70 69 70 67 67 67 67 67 69 63 62 60 58 57 57
90 88 88 87 86 85 86 86 85 84 83 81 79 79 78 78 78 78 78 76 75 75 75 74 73 72 70 69 69 69 69 68 67 69 67 66 65 62 61 59 58 57 57
85 83 85 86 86 86 86 85 86 86 84 81 79 79 78 79 79 78 77 77 76 76 75 74 73 71 70 70 70 69 69 68 69 69 68 67 64 64 62 59 57 55 53
81 85 86 85 83 83 85 86 86 85 85 80 80 79 80 79 79 78 77 77 77 77 76 73 70 70 70 71 70 70 68 68 67 67 67 66 67 67 64 59 56 53 50
83 81 80 82 83 86 85 86 85 83 85 81 80 81 79 78 77 77 77 78 78 75 74 71 70 71 73 67 67 69 69 68 66 66 65 65 68 65 65 64 64 60 52
83 80 81 82 83 79 83 80 80 79 82 82 79 78 77 77 77 78 77 77 75 72 72 72 72 70 70 64 65 67 67 65 65 65 65 65 65 60 58 59 60 58 61
81 79 78 77 75 75 74 75 75 75 76 74 76 77 77 77 77 77 76 74 73 72 72 71 71 68 65 63 63 65 64 63 66 64 63 59 56 56 55 53 52 52 52
81 80 80 76 75 76 75 75 74 75 76 75 75 77 78 77 76 75 74 73 73 72 71 70 68 65 63 61 61 63 64 64 60 60 59 57 56 58 58 52 51 51 52
79 80 78 76 76 74 75 75 73 74 74 75 76 77 78 77 75 75 73 72 72 69 70 69 65 63 63 59 59 62 64 60 57 56 57 60 56 56 55 50 48 48 50
79 77 76 78 78 73 74 73 73 73 75 76 76 76 76 75 74 72 71 71 71 71 69 66 63 62 61 57 57 59 61 58 55 56 55 55 56 54 51 52 50 50 50
74 74 73 72 73 75 76 72 73 74 75 74 73 72 72 74 73 71 71 71 69 67 65 64 61 58 58 56 55 56 57 58 57 56 55 54 55 51 52 53 53 52 53
72 73 74 73 73 74 76 73 73 74 73 72 72 71 72 72 72 73 69 67 66 65 64 63 60 56 56 54 54 54 55 57 56 55 56 56 52 51 52 53 52 52 48
70 72 72 71 71 73 74 74 73 74 73 71 71 71 70 67 67 67 66 66 65 64 64 62 58 55 54 53 52 56 56 57 56 56 55 55 54 53 52 51 50 48 48
70 71 71 71 72 73 73 74 74 74 72 71 70 69 65 60 56 51 54 59 56 60 64 63 60 56 54 56 53 54 56 56 53 53 52 51 49 48 47 47 47 47 47
70 69 69 70 70 72 72 72 74 74 71 70 69 66 63 61 61 59 55 50 48 46 49 53 59 56 53 49 49 48 48 49 50 52 49 47 46 46 45 45 46 45 47